CAPE
1596 1273 190 408 0 0 0 0 17 32 96 82 61 139 43 41 41 190 145 129 171 202 397 1029 2003 2159 1999 2413 2566 2692 2783 2477 2386 2279 2051 1662 1722 1775 1756 1492 1638 1320 1372 859 816 1021 1054 1251 1286
895 433 112 319 0 0 6 0 0 90 30 75 62 8 23 160 130 194 64 145 131 166 456 1214 2175 2341 1985 2106 2553 2674 2522 2055 2124 1927 1701 1725 1636 1052 1342 1212 925 760 1090 954 743 804 970 1001 871
849 302 787 43 0 0 37 41 109 139 129 106 120 113 92 189 99 109 68 206 208 188 571 1015 2388 2322 1910 2045 2534 2505 2559 2211 2220 1933 1752 1848 981 532 1019 1013 973 1490 1066 905 1192 1300 1099 1070 985
472 887 173 21 0 6 96 76 205 103 118 82 66 128 302 291 269 104 133 118 154 224 414 1871 2264 1918 1957 1966 2106 2292 2314 2504 2354 1957 1862 937 691 1237 1670 1501 1560 1547 1563 928 898 918 949 914 589
141 19 0 0 0 165 149 115 50 34 90 102 75 106 241 254 66 59 43 35 119 155 348 1093 2359 2373 2424 2594 2387 2378 2335 2166 2002 1843 1252 898 782 1316 1597 1111 1295 1319 1230 1334 1107 973 1139 1123 1170
0 0 0 0 66 122 193 147 93 96 26 81 90 152 340 151 68 1 4 20 159 156 214 656 1623 1844 2272 2042 1893 1987 1884 1937 2046 1902 1689 1539 1357 1244 1073 1245 1634 1696 1672 1550 1394 1303 1365 1204 994
53 0 0 0 100 187 208 121 102 100 67 55 58 131 319 76 2 0 0 6 59 65 98 222 631 1272 1725 1717 1895 1793 1873 1846 1219 1239 1742 1822 1597 1207 1306 1792 1594 1680 1687 1502 1411 1369 1453 1512 1447
101 0 0 0 60 123 229 235 225 201 144 117 61 109 339 74 1 0 4 7 9 27 21 87 162 263 573 1418 1796 2005 1837 1701 1558 1479 1280 1022 1109 1635 1661 1740 1750 1658 1589 1502 1440 1431 1569 1472 1447
68 0 0 13 120 267 315 409 381 218 245 265 214 169 146 8 1 0 0 9 5 23 11 34 51 89 45 355 1214 1233 1626 1639 1621 1507 1816 1188 803 824 801 915 963 1043 960 932 1149 1275 1600 1907 1874
2 0 23 36 218 417 535 423 416 375 235 301 398 268 158 36 1 0 0 8 0 3 3 1 12 51 10 47 94 290 886 600 453 375 340 374 659 688 1383 1453 1492 1526 1708 1903 2009 2160 2148 1788 1435
37 0 0 249 585 604 360 247 448 302 244 164 380 354 231 96 11 0 0 0 0 0 0 0 1 2 0 0 2 130 623 558 613 542 329 529 481 483 492 360 363 521 1029 1099 1221 1108 937 1032 1152
0 2 1 727 622 268 230 307 347 287 303 313 246 294 230 162 47 0 0 0 0 0 0 0 0 0 0 0 0 0 181 286 234 378 664 689 505 518 521 498 767 513 646 829 860 903 1006 1111 962
0 1 283 471 391 212 209 262 275 470 467 457 258 366 351 177 74 0 0 0 0 0 0 0 0 1 0 0 0 7 9 102 216 411 371 624 377 328 604 975 756 625 525 663 1016 1071 1112 1178 1016
0 82 203 273 224 235 302 259 288 623 529 543 255 209 162 103 80 25 0 0 0 0 0 0 0 0 0 1 3 1 23 80 210 208 615 581 627 498 269 645 781 495 444 750 906 849 908 827 708
16 30 108 161 215 426 254 360 295 722 731 648 368 232 141 101 54 65 18 0 0 0 0 0 0 0 0 0 0 0 0 118 74 408 488 502 832 624 580 669 636 367 291 566 568 330 199 81 87
0 1 60 64 140 365 26 215 446 726 789 764 690 492 366 248 210 163 146 97 19 0 0 0 0 0 0 0 0 0 0 0 4 72 128 435 913 744 551 637 595 649 714 619 450 139 35 16 15
0 33 0 59 74 247 140 119 471 596 749 799 769 665 580 384 305 206 186 166 75 3 0 0 0 0 0 0 0 0 0 0 0 112 573 880 1055 1237 806 897 914 836 721 499 366 5 0 0 0
0 0 0 44 27 54 117 79 477 557 573 633 662 605 570 416 291 231 211 191 99 33 0 0 0 0 0 0 0 0 0 0 120 575 936 864 931 934 622 765 643 460 773 472 405 170 50 0 10
0 0 0 4 3 20 15 35 380 528 576 540 502 510 444 393 303 150 192 165 85 27 0 0 0 0 0 0 0 0 0 2 330 660 675 331 332 326 44 13 8 142 439 757 563 189 46 45 0
0 0 0 0 0 16 0 8 153 374 504 526 468 388 441 378 272 157 146 152 120 19 0 0 0 0 0 0 39 75 75 113 325 566 304 203 238 435 81 0 0 0 94 100 384 295 85 0 0
0 0 0 0 0 0 1 0 63 115 371 441 413 317 329 298 182 92 84 90 97 1 0 0 0 0 0 0 90 320 534 758 756 609 225 22 165 196 58 0 0 0 0 0 124 390 183 315 100
0 0 0 0 0 1 0 0 0 38 78 46 40 139 243 246 116 64 62 31 23 12 0 0 0 0 0 0 216 320 441 604 688 677 532 344 12 12 0 0 0 0 0 0 0 361 468 102 499
0 0 0 0 0 0 0 0 0 0 7 40 31 0 189 204 131 62 78 46 13 11 1 0 0 0 0 6 218 401 609 725 603 573 769 784 350 4 0 0 0 0 2 59 302 707 905 560 750
0 0 0 0 0 0 0 0 0 0 7 21 18 7 0 104 156 85 43 49 50 73 64 68 104 48 39 130 242 381 620 806 849 936 1094 1230 726 313 281 354 154 213 336 567 975 970 1033 971 699
0 0 0 0 0 0 0 0 0 0 0 1 1 8 0 0 13 64 1 20 49 121 144 222 193 213 215 364 499 540 663 882 1025 1175 1181 1186 1118 667 694 356 520 636 594 870 1034 987 637 352 300
0 0 0 0 0 0 0 0 0 0 0 0 0 0 0 0 0 0 0 1 43 120 212 316 319 336 383 588 791 846 873 955 1133 1316 1339 1266 1211 724 663 187 99 60 133 103 48 23 13 10 19
0 0 0 0 0 0 0 0 0 0 0 0 0 0 0 0 0 0 0 0 0 71 275 360 432 393 477 580 956 1044 1102 1151 1148 1112 991 893 560 694 533 32 15 37 17 37 7 0 0 1 17
0 0 0 0 0 0 0 0 0 0 0 0 0 0 0 0 0 0 0 0 0 17 168 338 450 489 455 645 955 1160 1127 650 641 633 453 444 432 261 252 276 247 248 200 180 138 158 134 30 111
0 0 0 0 0 0 0 0 0 0 0 0 0 0 0 0 0 0 0 0 0 0 42 245 362 476 564 663 657 709 694 557 132 29 120 60 53 104 95 14 0 20 97 146 65 99 58 216 324
0 0 0 0 0 0 0 0 0 0 0 0 0 0 0 0 0 0 0 0 56 176 98 219 628 878 477 339 267 263 209 0 0 0 0 0 0 0 0 0 0 2 12 86 111 168 250 233 209
CIN
-221 -241 -464 -339 -0 -0 -0 -0 -75 -78 -85 -81 -91 -72 -72 -65 -57 -35 -0 -1 -3 -4 -14 -3 -0 -0 -0 -0 -0 -0 -0 -0 -0 -0 -0 -0 -0 -0 -0 -0 -0 -1 -6 -0 -0 -0 -0 -0 -0
-393 -449 -515 -323 -0 -0 -16 -0 -0 -69 -78 -54 -56 -48 -92 -33 -33 -6 -4 -1 -13 -17 -17 -3 -0 -0 -0 -0 -0 -0 -0 -0 -0 -0 -0 -0 -0 -0 -0 -1 -0 -0 -0 -0 -1 -0 -0 -0 -1
-424 -505 -255 -65 -0 -0 -64 -54 -35 -37 -35 -34 -24 -40 -48 -24 -26 -8 -5 -6 -16 -16 -18 -3 -0 -0 -0 -0 -0 -0 -0 -0 -0 -0 -0 -0 -0 -17 -1 -0 -0 -0 -0 -0 -0 -0 -0 -0 -2
-490 -342 -371 -134 -2 -105 -67 -83 -26 -45 -50 -68 -55 -32 -8 -4 -2 -3 -9 -8 -16 -22 -46 -1 -0 -0 -0 -0 -0 -0 -0 -0 -0 -0 -0 -1 -3 -1 -0 -0 -0 -1 -0 -0 -0 -0 -2 -6 -14
-593 -339 -0 -0 -0 -80 -94 -72 -108 -86 -72 -71 -88 -33 -18 -3 -44 -13 -9 -15 -13 -21 -27 -6 -0 -0 -0 -0 -0 -0 -0 -0 -0 -0 -0 -1 -1 -0 -0 -0 -0 -0 -0 -0 -3 -3 -6 -10 -12
-0 -0 -0 -0 -127 -134 -149 -144 -113 -81 -92 -85 -70 -53 -13 -20 -34 -0 -20 -22 -12 -21 -35 -14 -1 -1 -0 -0 -0 -0 -0 -0 -0 -0 -0 -0 -0 -0 -0 -6 -0 -0 -0 -0 -0 -4 -5 -12 -17
-245 -0 -0 -0 -140 -112 -147 -162 -140 -100 -101 -117 -103 -79 -28 -56 -0 -0 -0 -34 -24 -37 -44 -41 -24 -1 -0 -0 -0 -0 -0 -0 -1 -3 -0 -0 -0 -0 -0 -0 -0 -0 -0 -0 -3 -3 -2 -6 -11
-347 -0 -0 -0 -139 -144 -180 -153 -127 -111 -113 -90 -127 -65 -36 -86 -0 -25 -22 -37 -66 -54 -57 -54 -64 -64 -42 -7 -0 -0 -0 -0 -0 -0 -0 -6 -5 -0 -0 -3 -2 -1 -5 -11 -4 -11 -7 -12 -17
-431 -10 -0 -143 -153 -168 -204 -166 -158 -179 -139 -99 -91 -77 -81 -20 -5 -7 -0 -41 -67 -23 -65 -92 -98 -111 -175 -83 -14 -20 -0 -2 -3 -10 -0 -22 -58 -47 -40 -27 -29 -20 -22 -28 -23 -26 -27 -16 -21
-51 -0 -223 -162 -202 -213 -206 -218 -201 -180 -198 -135 -65 -64 -88 -163 -0 -0 -0 -48 -8 -77 -93 -72 -147 -157 -218 -223 -216 -146 -44 -100 -104 -98 -110 -120 -76 -81 -33 -17 -13 -20 -12 -10 -15 -16 -29 -53 -80
-391 -0 -0 -218 -219 -253 -278 -318 -247 -267 -236 -293 -127 -92 -98 -164 -217 -0 -0 -6 -0 -149 -15 -0 -57 -192 -0 -0 -133 -212 -79 -99 -95 -87 -136 -111 -117 -112 -115 -156 -156 -148 -80 -92 -90 -100 -117 -117 -112
-0 -302 -15 -252 -272 -306 -311 -350 -294 -285 -265 -238 -218 -146 -149 -141 -222 -0 -0 -0 -0 -0 -0 -0 -75 -0 -0 -0 -0 -0 -186 -160 -138 -137 -107 -112 -129 -122 -120 -122 -105 -146 -139 -127 -133 -146 -134 -126 -115
-0 -35 -266 -268 -307 -362 -380 -360 -311 -243 -220 -189 -230 -145 -127 -192 -248 -0 -0 -0 -0 -0 -0 -0 -0 -69 -0 -148 -159 -350 -384 -261 -208 -148 -145 -119 -156 -169 -130 -97 -121 -132 -166 -155 -121 -109 -105 -98 -107
-0 -319 -298 -281 -293 -330 -339 -387 -325 -203 -194 -169 -244 -257 -272 -313 -309 -372 -0 -0 -0 -0 -0 -0 -0 -61 -0 -287 -440 -259 -384 -296 -237 -245 -185 -165 -174 -174 -212 -162 -139 -211 -209 -159 -108 -130 -136 -127 -131
-309 -279 -265 -313 -291 -305 -350 -318 -367 -260 -198 -169 -238 -294 -358 -381 -421 -361 -423 -0 -0 -0 -0 -0 -0 -0 -0 -0 -0 -0 -0 -270 -317 -224 -201 -196 -160 -180 -184 -159 -174 -209 -263 -200 -198 -223 -245 -286 -270
-0 -34 -199 -276 -297 -323 -366 -256 -343 -292 -257 -207 -190 -233 -269 -320 -332 -336 -319 -365 -506 -0 -0 -0 -0 -0 -0 -0 -0 -0 -0 -0 -378 -351 -300 -216 -160 -181 -195 -174 -186 -179 -169 -209 -200 -251 -255 -312 -388
-0 -145 -0 -220 -315 -295 -345 -304 -344 -346 -309 -267 -240 -228 -226 -278 -311 -358 -358 -388 -454 -280 -0 -0 -0 -0 -0 -0 -0 -0 -0 -0 -0 -346 -212 -183 -168 -143 -177 -160 -151 -142 -187 -250 -284 -53 -0 -0 -0
-0 -0 -0 -201 -292 -336 -307 -322 -371 -399 -393 -340 -312 -279 -248 -289 -344 -348 -374 -394 -472 -564 -0 -0 -0 -0 -0 -0 -0 -0 -0 -0 -277 -219 -156 -178 -186 -178 -189 -149 -148 -185 -147 -209 -262 -265 -179 -0 -259
-0 -0 -0 -140 -290 -332 -391 -297 -364 -411 -412 -413 -378 -341 -326 -324 -328 -400 -381 -394 -451 -543 -0 -0 -0 -0 -0 -0 -0 -0 -0 -64 -267 -200 -199 -232 -232 -230 -301 -303 -306 -270 -151 -115 -137 -216 -280 -282 -0
-0 -0 -0 -0 -0 -313 -58 -362 -382 -418 -444 -418 -396 -366 -362 -367 -382 -416 -429 -415 -404 -440 -0 -0 -0 -0 -0 -0 -595 -533 -492 -439 -297 -248 -294 -305 -263 -178 -260 -0 -0 -0 -196 -190 -179 -189 -231 -0 -0
-0 -0 -0 -0 -0 -0 -166 -0 -413 -436 -430 -420 -430 -401 -398 -389 -423 -452 -479 -472 -435 -256 -0 -0 -0 -0 -0 -0 -489 -263 -216 -178 -191 -188 -253 -441 -292 -281 -309 -0 -0 -0 -0 -0 -248 -157 -195 -148 -220
-0 -0 -0 -0 -0 -75 -0 -7 -0 -484 -498 -536 -544 -513 -471 -441 -460 -470 -509 -523 -478 -483 -0 -0 -0 -0 -0 -0 -351 -272 -208 -174 -184 -176 -205 -218 -273 -71 -0 -0 -0 -0 -0 -0 -0 -191 -143 -232 -119
-0 -0 -0 -0 -0 -0 -0 -0 -0 -0 -550 -571 -559 -0 -489 -492 -495 -544 -522 -511 -497 -510 -37 -0 -0 -0 -36 -599 -420 -303 -199 -204 -216 -237 -156 -151 -235 -132 -0 -0 -0 -0 -34 -436 -267 -150 -112 -150 -97
-0 -0 -0 -0 -0 -0 -0 -0 -0 -0 -420 -436 -539 -357 -0 -526 -492 -536 -543 -491 -489 -509 -494 -516 -542 -544 -589 -539 -465 -392 -293 -224 -223 -200 -206 -160 -218 -310 -309 -317 -405 -370 -325 -255 -199 -191 -134 -108 -104
-0 -0 -0 -0 -0 -0 -0 -0 -0 -0 -0 -130 -204 -507 -0 -0 -266 -535 -124 -524 -553 -532 -500 -463 -494 -513 -528 -448 -384 -345 -304 -319 -220 -208 -230 -248 -194 -243 -218 -278 -285 -262 -251 -205 -180 -179 -189 -198 -131
-0 -0 -0 -0 -0 -0 -0 -0 -0 -0 -0 -0 -0 -63 -0 -0 -0 -29 -0 -77 -590 -573 -529 -471 -506 -507 -467 -397 -353 -315 -299 -296 -224 -170 -139 -187 -256 -309 -278 -331 -395 -383 -340 -341 -351 -366 -379 -275 -175
-0 -0 -0 -0 -0 -0 -0 -0 -0 -0 -0 -0 -0 -0 -0 -0 -0 -0 -0 -0 -0 -598 -555 -508 -509 -513 -483 -432 -334 -298 -303 -258 -227 -195 -219 -223 -323 -253 -254 -411 -382 -347 -380 -349 -348 -0 -0 -34 -275
-0 -0 -0 -0 -0 -0 -0 -0 -0 -0 -0 -0 -0 -0 -0 -0 -0 -0 -0 -0 -0 -538 -597 -538 -467 -474 -496 -468 -372 -291 -270 -320 -293 -285 -283 -281 -274 -242 -197 -210 -226 -224 -257 -241 -265 -242 -221 -288 -211
-0 -0 -0 -0 -0 -0 -0 -0 -0 -0 -0 -0 -0 -0 -0 -0 -0 -0 -0 -0 -0 -0 -747 -603 -531 -535 -507 -453 -423 -355 -321 -344 -408 -429 -350 -104 -358 -294 -285 -109 -0 -342 -257 -280 -306 -243 -240 -151 -119
-0 -0 -0 -0 -0 -0 -0 -0 -0 -0 -0 -0 -0 -0 -0 -0 -0 -0 -0 -0 -888 -840 -794 -672 -573 -457 -515 -512 -475 -430 -408 -0 -0 -0 -0 -0 -0 -0 -0 -0 -0 -211 -292 -269 -236 -167 -116 -101 -87
Wind_Speed
5 3 2 1 5 6 3 4 1 2 3 4 7 7 10 9 4 7 6 7 6 8 5 12 18 18 20 19 18 17 17 17 17 16 15 16 15 13 13 13 14 14 14 13 13 12 12 11 10
4 4 1 1 7 3 4 4 3 4 8 7 9 7 7 5 5 9 9 4 7 4 4 8 16 17 18 17 16 16 16 16 17 16 14 14 15 13 12 13 12 12 12 12 13 12 11 11 10
5 5 2 4 4 4 3 1 4 8 7 2 4 5 4 4 10 4 9 6 7 4 4 10 16 17 17 16 15 15 16 15 15 15 14 14 15 13 11 11 12 12 12 11 12 12 11 9 7
3 1 3 6 4 2 3 4 7 6 5 6 6 7 5 6 3 6 9 8 8 5 4 12 15 16 16 16 15 15 14 14 14 14 14 14 13 10 12 11 12 12 12 11 9 9 8 7 5
2 2 5 4 4 3 5 5 2 3 4 6 3 4 5 5 16 12 9 8 7 6 5 6 14 15 14 14 14 14 14 14 14 13 13 12 11 9 10 11 10 10 10 9 7 7 6 5 4
4 2 5 1 2 3 5 8 5 9 10 9 9 5 5 12 14 9 8 7 7 7 5 5 12 13 14 14 14 14 14 17 14 12 10 11 10 9 8 8 8 8 7 6 7 6 6 5 3
1 4 2 2 3 2 5 6 4 6 6 6 7 5 5 11 11 9 8 8 9 7 7 5 5 10 15 14 14 13 14 15 14 12 11 10 8 7 5 6 5 5 6 5 5 5 5 6 7
2 4 2 2 1 2 5 5 4 5 6 5 8 4 6 7 12 9 8 7 8 7 6 5 6 6 6 5 13 11 12 14 12 11 9 8 7 7 6 4 4 3 3 4 5 4 5 6 7
2 4 2 1 4 4 4 4 6 7 8 5 5 9 13 15 14 10 7 5 5 5 2 4 5 6 6 6 7 9 9 11 10 8 7 5 3 3 4 1 2 3 4 4 5 5 5 5 4
4 4 6 5 5 5 5 5 5 4 7 8 12 16 17 16 13 12 9 7 3 3 3 4 5 5 4 4 6 5 4 4 4 3 2 2 2 0 0 4 5 4 6 6 7 7 7 6 3
2 5 4 3 8 11 5 4 3 10 4 6 16 15 15 14 11 11 8 7 4 3 2 4 4 3 4 4 3 2 2 3 3 4 3 3 1 2 2 2 2 3 5 2 3 4 2 4 2
3 5 3 6 8 6 4 6 7 2 4 14 15 16 13 14 12 12 8 7 6 4 4 4 4 2 2 2 1 2 3 2 2 3 4 3 2 3 2 2 3 2 2 4 4 2 3 4 3
1 4 7 12 8 7 7 6 6 8 13 13 16 14 13 13 12 8 8 5 5 6 5 5 5 4 3 2 2 0 1 2 3 3 3 2 2 1 2 2 3 2 3 3 3 4 3 3 6
4 13 12 9 8 6 8 4 4 5 10 12 14 14 12 13 13 9 10 8 8 6 6 5 4 5 4 3 3 2 2 2 2 2 3 3 1 2 2 2 3 3 3 3 2 2 3 4 4
8 10 10 4 5 4 13 2 2 12 12 11 12 12 13 13 13 13 11 10 9 7 7 7 5 4 4 3 4 3 3 2 3 3 5 4 3 4 4 2 3 3 3 3 2 1 2 3 4
7 6 4 4 5 6 1 1 4 10 12 10 10 10 11 12 14 11 10 10 11 10 10 9 7 7 7 6 5 4 3 3 3 3 3 5 5 4 4 4 3 3 2 3 1 1 3 3 2
7 4 3 2 7 7 1 2 7 9 9 9 9 9 9 9 11 12 13 13 11 11 10 10 7 7 7 6 4 4 5 4 3 3 3 6 6 4 4 4 2 2 3 4 4 2 2 2 3
7 4 2 6 9 4 6 5 9 13 10 11 10 8 8 9 14 11 12 12 11 11 10 9 6 7 6 3 2 3 4 4 2 3 4 5 3 3 3 2 2 3 2 5 5 3 1 1 4
6 6 6 6 5 5 8 5 11 13 11 10 9 9 8 11 9 9 11 11 11 10 9 9 7 7 4 2 1 2 4 3 2 3 5 3 4 2 2 1 2 2 2 3 5 3 3 3 3
7 6 6 5 4 10 6 4 8 13 14 11 11 10 11 9 7 8 10 9 10 9 7 5 7 5 5 3 2 3 2 3 3 3 3 4 5 4 3 3 3 3 2 2 3 2 2 1 2
4 5 4 5 4 4 7 3 7 7 10 9 11 12 12 14 13 10 11 12 10 9 9 9 8 7 6 6 3 2 2 2 2 2 1 3 5 5 4 4 4 3 3 3 2 2 4 2 2
5 7 7 9 7 6 2 5 6 9 13 12 15 15 15 16 14 13 15 12 11 10 9 8 9 10 8 7 5 7 5 4 2 2 2 3 4 3 4 6 5 4 3 4 4 3 3 3 4
8 3 2 6 6 7 1 4 7 7 11 20 18 17 18 17 18 18 17 15 13 11 12 11 10 8 9 11 11 8 7 6 3 3 4 4 1 2 4 5 6 7 5 4 4 3 4 3 2
3 6 10 7 4 3 6 6 7 7 18 16 18 18 19 18 18 17 16 13 13 11 10 10 9 10 12 12 12 12 11 8 4 5 4 2 2 1 3 4 4 4 4 4 2 1 3 2 3
6 7 4 5 3 7 2 6 12 9 13 18 22 23 20 18 17 16 14 13 12 14 13 12 11 16 14 14 12 11 10 10 10 6 3 4 2 1 4 2 4 1 2 3 2 1 3 2 3
6 9 8 7 5 3 3 5 10 6 9 9 13 20 13 15 16 17 14 15 17 17 15 14 15 17 13 13 13 9 8 6 4 4 4 4 3 4 3 3 4 1 1 1 2 1 2 3 5
6 3 6 10 4 3 4 7 11 5 5 5 10 9 13 15 17 18 12 16 17 16 18 19 17 17 12 13 8 7 8 6 5 4 3 4 3 1 1 2 4 4 3 2 0 2 4 4 5
6 7 4 3 6 4 4 4 7 7 6 4 8 12 13 10 11 9 13 16 15 15 16 17 15 17 12 9 9 8 8 6 6 5 3 1 2 1 3 3 3 4 5 5 3 4 6 5 5
2 2 7 7 4 7 2 7 7 7 6 8 9 8 9 9 9 11 12 13 14 13 13 13 12 10 8 9 9 8 6 5 2 2 2 3 3 3 5 5 6 5 7 5 4 5 7 7 6
4 8 7 8 5 1 4 8 5 8 9 7 9 8 4 6 9 9 10 10 9 9 10 9 5 6 5 5 4 5 2 4 4 3 2 2 3 3 5 5 6 6 5 4 4 5 6 7 8
Wind_Direction
185 156 235 61 52 62 352 322 57 79 42 3 43 74 90 37 25 101 114 128 104 109 112 99 102 102 102 99 101 100 100 104 105 107 108 100 97 97 98 97 97 95 92 97 94 92 97 96 103
146 190 358 94 78 54 290 342 29 78 137 121 71 77 57 70 50 97 113 148 108 117 93 97 102 101 102 102 99 100 101 99 99 99 98 104 96 88 86 88 93 103 101 94 102 103 98 101 104
172 252 49 81 110 153 202 69 103 139 165 55 100 41 75 70 98 103 100 97 83 72 90 109 102 103 105 105 102 100 100 101 100 102 101 99 98 106 108 106 110 96 95 97 95 90 91 90 89
212 340 24 63 33 59 172 119 130 119 41 51 114 71 77 29 84 104 110 103 87 68 105 112 103 101 103 103 105 103 102 101 102 100 98 95 100 104 104 103 89 96 91 87 85 87 85 77 71
29 33 55 51 7 45 55 111 13 72 60 50 49 75 62 66 100 102 100 89 81 70 61 97 102 105 106 108 109 108 103 100 98 99 98 102 107 104 92 93 92 92 96 89 74 75 75 60 41
17 101 52 20 74 103 72 60 73 85 99 99 84 85 64 103 106 89 82 74 69 73 47 75 109 109 102 100 97 99 102 102 96 95 104 112 115 103 105 105 100 95 84 77 68 51 40 11 360
111 81 182 121 141 115 117 139 107 101 90 61 130 87 86 91 101 101 89 69 55 52 51 50 84 101 100 98 92 95 95 95 93 94 89 86 92 101 92 80 87 82 67 46 46 36 19 359 348
146 96 93 39 187 22 137 116 141 76 60 110 148 129 130 128 116 102 75 64 59 47 45 63 55 54 45 59 90 87 95 91 95 97 96 101 95 91 87 54 16 21 26 13 357 358 357 340 334
184 62 131 240 134 142 147 107 36 71 100 47 14 110 116 130 124 114 102 67 68 95 94 82 75 53 44 43 55 47 73 91 79 66 81 71 66 63 49 340 305 330 344 341 320 320 321 293 284
86 105 213 169 141 136 123 96 120 93 93 92 93 108 127 136 139 141 151 138 114 114 67 61 60 58 56 58 42 31 40 31 59 45 33 20 16 354 53 307 307 324 324 319 314 319 322 332 313
149 174 197 89 99 114 109 86 87 124 98 142 137 134 138 142 152 157 158 156 162 140 139 96 78 56 48 59 36 15 32 16 14 358 10 26 20 6 4 351 318 332 307 299 300 311 300 323 317
124 251 105 100 104 105 107 116 110 343 122 139 140 142 149 155 166 171 169 160 168 175 173 160 145 123 90 85 64 353 26 14 21 357 8 27 11 8 3 336 306 314 317 291 266 262 312 322 324
306 71 66 102 95 93 116 83 90 82 117 129 143 151 159 168 175 169 172 161 168 197 204 204 166 177 188 199 200 28 333 3 359 355 341 19 360 342 335 323 330 320 307 286 308 344 346 332 334
105 88 102 89 110 113 104 128 80 115 128 140 155 164 170 178 185 166 172 181 186 200 216 223 189 199 194 221 226 232 280 319 357 310 308 307 276 270 254 276 280 274 262 272 324 302 333 340 329
96 75 79 91 126 84 117 21 67 142 147 160 169 174 179 188 192 202 191 189 190 203 212 223 201 191 214 254 265 265 274 314 295 291 293 302 269 242 242 256 285 286 296 297 227 358 351 325 328
72 63 87 236 136 154 342 130 133 162 157 171 180 185 187 195 200 203 201 197 198 196 201 209 207 190 205 210 232 239 246 253 269 274 289 279 261 238 231 223 240 276 291 264 156 18 331 288 321
20 163 149 199 183 160 71 182 168 179 183 182 190 194 198 196 206 209 204 200 197 201 206 216 205 210 210 207 227 239 256 247 244 252 253 270 270 251 229 234 248 244 276 280 134 136 231 312 317
192 131 206 196 205 179 155 243 169 184 203 201 191 194 203 204 213 205 204 200 196 200 203 211 205 206 211 214 274 296 292 280 249 257 263 275 268 265 263 292 215 214 277 289 351 32 294 330 327
138 167 203 219 197 146 192 176 192 189 209 213 206 199 199 214 214 201 201 198 196 200 200 209 200 207 170 157 185 234 236 257 261 245 260 322 296 240 197 223 270 268 227 282 324 345 345 343 350
145 164 249 300 202 176 159 205 188 196 215 218 205 210 211 219 197 201 200 196 195 197 202 211 229 216 206 195 205 204 209 252 241 210 213 197 226 244 226 230 238 268 264 295 301 328 355 316 305
201 191 185 179 117 56 121 334 177 214 217 216 220 214 218 212 209 199 202 202 194 191 192 203 209 208 206 202 195 229 245 241 241 263 223 213 206 218 202 211 217 214 206 243 259 233 202 260 246
256 193 241 151 139 177 152 253 222 209 212 220 218 205 209 208 214 210 200 198 194 198 191 197 206 203 201 186 210 219 234 245 246 235 263 256 207 215 187 184 183 212 224 228 232 221 199 183 263
225 56 20 158 106 104 306 63 257 168 222 222 222 211 211 206 204 208 207 194 190 193 199 198 203 207 216 208 204 205 226 233 210 209 271 286 78 201 213 201 194 193 199 212 227 226 205 187 234
126 77 40 51 76 17 194 143 279 186 217 227 217 221 211 209 208 209 205 186 186 192 194 198 193 212 209 209 215 212 214 232 216 223 225 282 328 155 226 208 209 217 193 209 222 327 266 254 251
87 70 28 31 352 212 153 114 242 237 243 215 201 216 209 203 204 205 186 180 182 187 188 197 197 220 216 213 222 219 219 216 229 246 230 193 192 247 244 235 144 174 349 356 21 331 280 295 252
174 157 150 183 187 200 37 227 255 241 256 233 212 212 207 202 206 208 176 177 187 188 186 191 204 219 211 221 224 220 210 224 204 217 239 229 188 192 206 283 290 266 238 269 330 323 275 222 236
186 148 169 102 10 71 210 281 307 259 308 196 193 182 202 198 202 205 169 182 186 184 190 193 204 222 208 211 216 212 204 195 202 230 200 246 86 2 246 225 252 254 271 290 316 283 289 252 254
138 154 93 12 132 210 274 266 238 326 327 315 188 191 202 196 196 166 181 187 185 186 193 200 202 213 203 189 195 209 207 187 202 202 250 323 59 338 316 320 314 322 311 295 294 297 288 268 276
108 107 55 109 115 154 170 266 211 240 253 225 225 221 196 180 162 177 180 183 184 184 185 197 206 199 174 173 182 196 204 202 117 89 47 47 75 341 301 307 307 302 291 298 305 295 281 274 275
145 167 136 129 221 102 140 267 262 257 236 206 226 223 198 164 169 166 161 150 154 162 176 191 170 171 153 140 152 179 152 97 104 99 352 329 308 307 293 291 281 286 298 325 325 308 287 287 296